FW8740 Weather Reports


Display with metric or nautical units.
time (UTC)temp
F
wind
direction
speed
MPH
gust
MPH
rain 1hr
in
rain 24hr
in
rain mn
in
humidity
%
barometer
mb
20260504151016 64 274 5.0 13.0 0.00 0.00 0.00 41 1015.4
20260504150514 63 96 2.0 7.0 0.00 0.00 0.00 43 1015.5
20260504140939 61 123 1.0 9.0 0.00 0.00 0.00 46 1015.8
20260504140436 60 98 2.0 5.0 0.00 0.00 0.00 46 1015.8
20260504130400 57 305 3.0 5.0 0.00 0.00 0.00 51 1016.7
20260504110248 50 270 2.0 6.0 0.00 0.00 0.00 59 1016.6
20260504100211 49 67 1.0 3.0 0.00 0.00 0.00 58 1016.2
20260504090134 49 46 2.0 6.0 0.00 0.00 0.00 58 1016.1
20260504081604 48 77 1.0 2.0 0.00 0.00 0.00 60 1016.0
20260504081100 48 90 1.0 2.0 0.00 0.00 0.00 59 1015.9
20260504080557 48 26 2.0 7.0 0.00 0.00 0.00 59 1016.0
20260504050409 42 86 1.0 1.0 0.00 0.00 0.00 71 1015.2
20260504045906 42 101 0.0 0.0 0.00 0.00 0.00 71 1015.1
20260504045402 42 99 0.0 0.0 0.00 0.00 0.00 70 1015.4
20260504044859 42 103 0.0 0.0 0.00 0.00 0.00 70 1015.0
20260504044356 42 98 0.0 0.0 0.00 0.00 0.00 70 1015.1
20260504043854 42 95 0.0 1.0 0.00 0.00 0.00 70 1015.3
20260504043350 43 97 0.0 1.0 0.00 0.00 0.00 70 1015.1
20260504042848 43 96 0.0 1.0 0.00 0.00 0.00 71 1015.0
20260504042344 42 102 0.0 0.0 0.00 0.00 0.00 71 1015.0
20260504041840 42 104 0.0 0.0 0.00 0.00 0.00 72 1014.9
20260504041337 42 103 0.0 0.0 0.00 0.00 0.00 72 1014.8
20260504040833 42 102 0.0 0.0 0.00 0.00 0.00 72 1015.0
20260504040331 42 101 0.0 0.0 0.00 0.00 0.00 72 1014.9
20260504035826 42 100 0.0 0.0 0.00 0.00 0.00 72 1015.1
20260504035324 42 97 0.0 0.0 0.00 0.00 0.00 72 1014.9
20260504034821 43 94 0.0 1.0 0.00 0.00 0.00 71 1015.0
20260504034319 44 111 0.0 0.0 0.00 0.00 0.00 71 1015.1
20260504033815 43 122 0.0 1.0 0.00 0.00 0.00 71 1014.8
20260504033313 43 101 0.0 0.0 0.00 0.00 0.00 70 1015.0
20260504032809 43 100 0.0 0.0 0.00 0.00 0.00 69 1015.0
20260504032307 44 109 0.0 0.0 0.00 0.00 0.00 69 1015.0
20260504031803 44 107 0.0 0.0 0.00 0.00 0.00 68 1014.9
20260504031301 44 105 0.0 0.0 0.00 0.00 0.00 67 1014.9
20260504030757 44 104 0.0 0.0 0.00 0.00 0.00 67 1014.8
20260504030254 44 109 0.0 0.0 0.00 0.00 0.00 66 1014.7
20260504025750 44 109 0.0 0.0 0.00 0.00 0.00 65 1014.9
20260504025247 44 105 0.0 0.0 0.00 0.00 0.00 64 1015.0
20260504024744 45 104 0.0 0.0 0.00 0.00 0.00 64 1015.0
20260504024241 45 104 0.0 0.0 0.00 0.00 0.00 63 1015.0
20260504023738 46 112 0.0 0.0 0.00 0.00 0.00 62 1015.0
20260504023234 46 118 0.0 1.0 0.00 0.00 0.00 61 1015.2
20260504022730 46 127 0.0 1.0 0.00 0.00 0.00 60 1015.1
20260504022226 45 126 0.0 1.0 0.00 0.00 0.00 60 1015.0
20260504021724 46 117 0.0 0.0 0.00 0.00 0.00 60 1015.2
20260504021221 46 126 0.0 0.0 0.00 0.00 0.00 58 1015.0
20260504020717 46 112 0.0 0.0 0.00 0.00 0.00 57 1014.9
20260504020214 47 115 0.0 0.0 0.00 0.00 0.00 55 1014.9
20260504015710 47 116 0.0 0.0 0.00 0.00 0.00 55 1014.9
20260504015207 48 115 0.0 0.0 0.00 0.00 0.00 55 1015.0
20260504014702 48 117 0.0 0.0 0.00 0.00 0.00 54 1014.9
20260504014159 48 110 0.0 0.0 0.00 0.00 0.00 54 1015.0
20260504013657 48 110 0.0 0.0 0.00 0.00 0.00 54 1014.7
20260504013154 48 109 0.0 0.0 0.00 0.00 0.00 54 1014.8
20260504012651 48 110 0.0 0.0 0.00 0.00 0.00 54 1014.8
20260504012149 49 108 0.0 0.0 0.00 0.00 0.00 53 1014.9
20260504011646 49 102 0.0 1.0 0.00 0.00 0.00 52 1014.6
20260504011142 49 102 0.0 0.0 0.00 0.00 0.00 53 1014.6
20260504010638 49 93 0.0 1.0 0.00 0.00 0.00 52 1014.4
20260504010134 50 104 0.0 0.0 0.00 0.00 0.00 50 1014.4
20260504005631 51 104 0.0 0.0 0.00 0.00 0.00 47 1014.3
20260504005128 51 97 0.0 1.0 0.00 0.00 0.00 46 1014.3
20260504004626 51 100 0.0 1.0 0.00 0.00 0.00 47 1014.4
20260504004123 51 100 0.0 1.0 0.00 0.00 0.00 47 1014.3
20260504003619 51 112 0.0 0.0 0.00 0.00 0.00 47 1014.1
20260504003116 52 113 0.0 0.0 0.00 0.00 0.00 46 1014.1
20260504002613 53 105 0.0 1.0 0.00 0.00 0.00 44 1013.8
20260504002110 53 99 0.0 1.0 0.00 0.00 0.00 44 1013.8
20260504001608 53 146 1.0 1.0 0.00 0.00 0.00 42 1013.7
20260504001103 53 103 0.0 1.0 0.00 0.00 0.00 42 1013.8
20260504000601 54 105 0.0 1.0 0.00 0.00 0.00 41 1013.7
20260504000058 54 103 0.0 1.0 0.00 0.00 0.00 41 1013.6
20260503235556 55 105 0.0 1.0 0.00 0.00 0.00 40 1013.5
20260503235053 55 99 1.0 1.0 0.00 0.00 0.00 40 1013.3
20260503234551 55 97 1.0 2.0 0.00 0.00 0.00 39 1013.2
20260503234049 55 86 1.0 6.0 0.00 0.00 0.00 39 1013.6
20260503233545 55 94 1.0 8.0 0.00 0.00 0.00 38 1013.4
20260503233041 55 94 0.0 2.0 0.00 0.00 0.00 38 1013.1
20260503232538 56 251 2.0 5.0 0.00 0.00 0.00 38 1013.1
20260503232036 56 10 1.0 2.0 0.00 0.00 0.00 37 1013.0
20260503231533 56 30 3.0 6.0 0.00 0.00 0.00 36 1013.3
20260503231030 56 62 2.0 6.0 0.00 0.00 0.00 37 1013.1
20260503230526 56 67 1.0 5.0 0.00 0.00 0.00 36 1013.0
20260503230024 56 53 3.0 3.0 0.00 0.00 0.00 36 1012.9
20260503225521 57 54 3.0 3.0 0.00 0.00 0.00 37 1012.8
20260503225016 57 85 1.0 2.0 0.00 0.00 0.00 36 1012.9
20260503224514 57 82 3.0 5.0 0.00 0.00 0.00 35 1012.7
20260503224011 57 47 1.0 3.0 0.00 0.00 0.00 36 1012.7
20260503223509 57 65 1.0 3.0 0.00 0.00 0.00 35 1012.6
20260503223004 56 50 2.0 2.0 0.00 0.00 0.00 35 1012.8
20260503222503 56 86 1.0 5.0 0.00 0.00 0.00 34 1012.7
20260503222000 57 182 1.0 3.0 0.00 0.00 0.00 34 1013.0
20260503221458 57 49 2.0 3.0 0.00 0.00 0.00 34 1012.6
20260503220955 57 105 2.0 5.0 0.00 0.00 0.00 34 1012.7
20260503220452 57 60 1.0 6.0 0.00 0.00 0.00 33 1012.9
20260503215949 57 92 1.0 5.0 0.00 0.00 0.00 34 1012.8
20260503215445 58 351 2.0 10.0 0.00 0.00 0.00 33 1012.9
20260503214943 59 133 3.0 5.0 0.00 0.00 0.00 34 1012.8
20260503214441 59 78 1.0 6.0 0.00 0.00 0.00 33 1012.7
20260503213938 59 35 3.0 6.0 0.00 0.00 0.00 33 1012.8
20260503213436 58 323 2.0 3.0 0.00 0.00 0.00 33 1012.8
20260503212932 58 324 4.0 13.0 0.00 0.00 0.00 33 1012.4
20260503212430 58 350 3.0 9.0 0.00 0.00 0.00 34 1012.5
20260503211927 58 349 2.0 6.0 0.00 0.00 0.00 34 1012.7
20260503211424 58 119 3.0 11.0 0.00 0.00 0.00 34 1012.5
20260503210919 58 75 3.0 5.0 0.00 0.00 0.00 34 1012.6
20260503210416 58 312 2.0 8.0 0.00 0.00 0.00 34 1012.5
20260503205910 60 331 7.0 10.0 0.00 0.00 0.00 34 1012.4
20260503205408 58 93 1.0 3.0 0.00 0.00 0.00 36 1012.3
20260503204904 58 26 3.0 6.0 0.00 0.00 0.00 35 1012.7
20260503204401 58 32 3.0 8.0 0.00 0.00 0.00 36 1012.5
20260503203859 58 0 3.0 7.0 0.00 0.00 0.00 35 1012.4
20260503203356 58 37 3.0 5.0 0.00 0.00 0.00 35 1012.8
20260503202852 57 42 7.0 9.0 0.00 0.00 0.00 35 1012.5
20260503202351 57 309 3.0 6.0 0.00 0.00 0.00 35 1012.6
20260503201849 57 337 3.0 16.0 0.00 0.00 0.00 36 1012.7
20260503201345 57 111 2.0 7.0 0.00 0.00 0.00 36 1012.7
20260503200843 57 12 4.0 8.0 0.00 0.00 0.00 37 1012.7
20260503200339 57 32 5.0 13.0 0.00 0.00 0.00 37 1012.9
20260503195836 57 310 5.0 8.0 0.00 0.00 0.00 37 1012.7
20260503195332 57 38 3.0 7.0 0.00 0.00 0.00 38 1012.8
20260503194830 58 60 3.0 6.0 0.00 0.00 0.00 38 1012.9
20260503194326 57 348 3.0 8.0 0.00 0.00 0.00 38 1012.8
20260503193822 57 301 2.0 6.0 0.00 0.00 0.00 40 1012.7
20260503193318 56 70 1.0 6.0 0.00 0.00 0.00 39 1013.0
20260503192814 56 46 3.0 7.0 0.00 0.00 0.00 41 1012.9
20260503192310 55 39 2.0 6.0 0.00 0.00 0.00 40 1013.0
20260503191806 56 320 2.0 9.0 0.00 0.00 0.00 40 1013.1
20260503191303 56 114 3.0 7.0 0.00 0.00 0.00 41 1012.9
20260503190800 55 21 3.0 5.0 0.00 0.00 0.00 42 1013.1
20260503190257 54 271 4.0 8.0 0.00 0.00 0.00 41 1013.1
20260503185754 55 334 5.0 10.0 0.00 0.00 0.00 42 1013.4
20260503185250 55 298 6.0 8.0 0.00 0.00 0.00 42 1013.5
20260503184744 56 49 4.0 9.0 0.00 0.00 0.00 42 1013.4
20260503184241 54 328 4.0 9.0 0.00 0.00 0.00 42 1013.3
20260503183737 55 40 4.0 10.0 0.00 0.00 0.00 42 1013.4
20260503183235 55 350 3.0 7.0 0.00 0.00 0.00 44 1013.4
20260503182732 55 10 6.0 9.0 0.00 0.00 0.00 43 1013.4
20260503182231 55 27 5.0 6.0 0.00 0.00 0.00 44 1013.6
20260503181728 53 107 3.0 7.0 0.00 0.00 0.00 44 1013.4
20260503181225 54 66 4.0 8.0 0.00 0.00 0.00 45 1013.6
20260503180721 54 102 3.0 11.0 0.00 0.00 0.00 43 1013.5
20260503180219 53 112 2.0 6.0 0.00 0.00 0.00 45 1013.5
20260503175716 55 86 5.0 8.0 0.00 0.00 0.00 45 1013.7
20260503175214 53 333 2.0 5.0 0.00 0.00 0.00 45 1013.6
20260503174709 53 291 3.0 7.0 0.00 0.00 0.00 45 1013.4
20260503174207 53 329 5.0 7.0 0.00 0.00 0.00 45 1013.6
20260503173707 52 39 3.0 7.0 0.00 0.00 0.00 45 1013.4
20260503173204 51 330 5.0 8.0 0.00 0.00 0.00 45 1013.7
20260503172701 53 32 3.0 8.0 0.00 0.00 0.00 44 1013.6
20260503172158 53 91 5.0 8.0 0.00 0.00 0.00 43 1013.6
20260503171654 54 38 2.0 10.0 0.00 0.00 0.00 43 1013.7
20260503171152 53 107 3.0 10.0 0.00 0.00 0.00 42 1013.4
20260503170649 53 329 4.0 7.0 0.00 0.00 0.00 43 1013.6
20260503170145 53 344 5.0 9.0 0.00 0.00 0.00 43 1013.8
20260503160107 50 329 4.0 9.0 0.00 0.00 0.00 47 1013.7